Starlink 34816

operational
NORAD ID: 65467 Int'l Des: 2025-195 Owner: SPXS Country: US Constellation: starlink
LEOCIRCULAR

关于 Starlink 34816

正在加载描述...

实时位置

正在加载3D地球...

即将过境

高度历史

Altitude vs Time

uPlot chart will show altitude changes over time

两行轨道根数

1 65467U 25195K 25294.40285265 .00107012 00000-0 26454-2 0 9998
2 65467 53.1585 186.8990 0000741 46.6469 313.4598 15.39648969 8646
Epoch: Oct 21, 2025 • Age: 14 hours

当前状态

高度 462.0 km
速度 7.64 km/s
星下点 -44.52°S, 115.05°E
发射日期 Sep 3, 2025
运行时间 0.1 years
类型 internet

技术详情

分类 Payload
质量 575.00 kg
干质量 530.00 kg
总质量 575.00 kg
长度 0.30 m
直径 4.10 m
跨度 29.00 m
形状 Box + pan
制造商 SPXS
平台类型 Starlink V2MO
阶段状态 In Orbit
所有者/国家 SPXS/US

大型星座

Loading constellations...